Terminal Aerodrome Forecast
Issued by NWS Newport/Morehead City, NC

Home | Current Version | Previous Version | Text Only | Print | Product List | Glossary On
Versions: 1 2 3 4 5 6 7 8 9 10 11 12 13 14 15 16 17 18 19 20 21
000
FTUS42 KMHX 130500 CCA
TAFEWN
TAF COR
KEWN 130543Z 1306/1406 00000KT 1 1/2SM BR SKC
     FM130800 23003KT 1SM BR SKC
     FM131300 24007KT P6SM SKC
     FM131700 22006KT P6SM SCT040=

USA.gov is the U.S. government's official web portal to all federal, state and local government web resources and services.